,

(GMT )
Prerov

Weather History for LKPO - June, 2013

Change the Weather History Date:

Thursday, June 13, 2013

  Actual Average Record
Temperature  
Mean Temperature 62 °F -  
Max Temperature 77 °F - - ()
Min Temperature 46 °F - - ()
Degree Days  
Heating Degree Days 4    
Growing Degree Days 12 (Base 50)    
Moisture  
Dew Point 49 °F    
Average Humidity 66    
Maximum Humidity 94    
Minimum Humidity 32    
Precipitation  
Precipitation 0.00 in - - ()
Sea Level Pressure  
Sea Level Pressure 30.10 in    
Wind  
Wind Speed 2 mph ()    
Max Wind Speed 5 mph    
Max Gust Speed -    
Visibility 6.2 miles    
Events Fog    
T = Trace of Precipitation, MM = Missing Value Source: Averaged Metar Reports

Daily Weather History Graph

Daily Weather History Graph

Search for Another Location

Airport or City:

Trip Planner

Search our weather history database for the weather conditions in past years. The results will help you decide how hot, cold, wet, or windy it might be!

Date:

Astronomy

Jun. 13, 2013 Rise Set
Actual Time 4:43 AM CEST 8:57 PM CEST
Civil Twilight 4:00 AM CEST 9:40 PM CEST
Nautical Twilight 2:58 AM CEST 10:43 PM CEST
Astronomical Twilight 1:22 AM CEST 12:18 AM CEST
Moon 9:23 AM CEST (6/13) 11:31 PM CEST (6/13)
Length of Visible Light 17h 40m
Length of Day
16h 13m
Waxing Crescent, 19% of the Moon is Illuminated
Jun 13
Waxing Crescent
Jun 16
First Quarter
Jun 23
Full
Jun 30
Last Quarter
Jul 8
New

Hourly Weather History & Observations

Time (CEST) Temp. Windchill Dew Point Humidity Pressure Visibility Wind Dir Wind Speed Gust Speed Precip Events Conditions
12:00 AM 53.6 °F - 48.2 °F 82% 30.15 in - East 2.3 mph - N/A   Clear
1:00 AM 50.0 °F - 46.4 °F 87% 30.15 in - WNW 2.3 mph - N/A   Clear
2:00 AM 50.0 °F - 48.2 °F 94% 30.15 in - Calm Calm - N/A   Clear
3:00 AM 46.4 °F - 44.6 °F 93% 30.15 in - Variable 2.3 mph - N/A   Clear
4:00 AM 46.4 °F 45.2 °F 44.6 °F 93% 30.15 in - East 3.5 mph - N/A   Clear
5:00 AM 46.4 °F - 44.6 °F 93% 30.15 in 6.2 mi Calm Calm - N/A Fog Shallow Fog
6:00 AM 50.0 °F - 48.2 °F 94% 30.15 in - ESE 1.2 mph - N/A   Clear
7:00 AM 51.8 °F - 50.0 °F 94% 30.18 in - Variable 1.2 mph - N/A   Clear
8:00 AM 57.2 °F - 53.6 °F 88% 30.18 in - Variable 2.3 mph - N/A   Clear
9:00 AM 62.6 °F - 55.4 °F 77% 30.15 in - Variable 2.3 mph - N/A   Clear
10:00 AM 66.2 °F - 53.6 °F 64% 30.15 in 6.2 mi Variable 1.2 mph - N/A   Partly Cloudy
11:00 AM 69.8 °F - 55.4 °F 60% 30.15 in 6.2 mi NW 4.6 mph - N/A   Partly Cloudy
12:00 PM 71.6 °F - 51.8 °F 50% 30.12 in 6.2 mi Calm Calm - N/A   Partly Cloudy
1:00 PM 73.4 °F - 50.0 °F 44% 30.12 in - WNW 3.5 mph - N/A   Clear
2:00 PM 75.2 °F - 48.2 °F 38% 30.09 in - Variable 2.3 mph - N/A   Clear
3:00 PM 75.2 °F - 48.2 °F 38% 30.09 in - WSW 3.5 mph - N/A   Clear
4:00 PM 77.0 °F - 46.4 °F 34% 30.06 in - Variable 1.2 mph - N/A   Clear
5:00 PM 77.0 °F - 46.4 °F 34% 30.06 in - Variable 2.3 mph - N/A   Clear
6:00 PM 77.0 °F - 44.6 °F 32% 30.04 in - Calm Calm - N/A   Clear
7:00 PM 75.2 °F - 44.6 °F 34% 30.04 in - SSW 2.3 mph - N/A   Clear
8:00 PM 71.6 °F - 46.4 °F 41% 30.01 in - South 1.2 mph - N/A   Clear
9:00 PM 62.6 °F - 48.2 °F 59% 30.01 in - Calm Calm - N/A   Clear
10:00 PM 59.0 °F - 48.2 °F 67% 30.01 in - Variable 2.3 mph - N/A   Clear
11:00 PM 55.4 °F - 50.0 °F 82% 30.01 in - ENE 2.3 mph - N/A   Clear